Theta_e
331 331 331 330 329 328 329 330 330 329 328 327 328 329 330 330 331 332 331 328 327 325 325 325 324 323 323 324 324 324 324 325 325 325 325 324 324 324 324 323 323 323 324 325 325 325 325 325 327 328 328 329 330 332 333 333 334 333 333 333 333 332 333 332 332 333 333 333 333 333 331 331 332 332 332 332 330 329 327 326 327 326 326 328 329
328 329 330 330 328 327 328 329 329 329 328 327 328 327 328 328 329 329 328 326 326 325 324 324 323 321 322 322 323 322 323 323 324 324 325 324 324 323 322 322 322 322 322 324 324 325 325 325 326 327 328 329 329 330 331 332 332 332 333 332 332 332 332 332 332 332 332 332 333 332 332 334 333 330 330 331 330 330 329 328 328 328 327 327 328
327 328 328 328 328 327 327 327 328 329 328 328 328 328 327 327 328 328 326 325 325 324 323 323 322 322 322 322 321 321 323 324 324 324 324 323 322 321 321 322 322 322 321 322 323 324 324 324 325 326 326 327 328 328 329 330 330 331 331 332 332 332 332 331 331 331 331 332 332 331 332 334 333 330 329 329 330 331 330 330 330 328 327 326 327
328 327 327 328 328 327 326 327 328 329 329 328 328 328 327 327 327 327 325 325 325 324 323 323 321 322 323 322 322 322 322 323 323 322 322 321 320 320 320 321 322 321 320 320 321 322 323 323 323 323 324 325 325 326 327 327 328 330 331 331 331 330 329 330 330 330 331 331 331 332 332 331 333 333 330 328 329 331 332 331 330 329 328 327 327
330 328 327 327 328 328 327 327 327 329 329 328 328 328 326 326 327 326 325 325 324 324 324 322 320 320 321 321 321 321 321 321 322 321 321 320 320 320 320 320 321 321 321 320 320 320 321 320 320 321 322 322 322 322 324 324 325 327 328 330 329 329 329 330 330 329 330 331 330 332 333 332 333 332 331 330 328 330 332 331 330 331 330 330 330
329 328 328 328 328 328 328 327 328 328 328 329 328 327 325 326 325 324 324 324 323 324 322 320 320 321 320 320 320 319 320 321 320 321 321 320 319 319 319 320 320 321 321 320 320 320 320 320 320 320 320 320 320 321 322 322 322 323 324 326 327 328 329 329 329 327 327 328 329 330 330 331 333 331 331 333 330 328 330 330 330 330 330 331 331
328 328 328 328 329 329 329 328 327 327 328 329 328 326 325 326 325 324 324 323 323 324 321 319 320 321 320 319 319 318 318 320 320 321 320 319 318 318 319 320 319 320 320 320 320 320 320 320 320 319 318 318 318 318 318 318 319 320 321 323 323 324 326 326 327 326 326 327 327 327 327 328 330 330 330 332 332 330 330 329 329 329 329 329 329
326 327 327 328 328 329 329 329 328 327 327 328 328 326 325 326 325 324 323 323 324 323 320 320 320 320 320 319 318 317 318 319 320 321 320 318 318 319 319 319 319 319 319 318 317 317 318 317 317 316 314 313 313 313 314 314 315 316 317 319 320 322 323 324 323 324 325 325 325 326 326 326 327 328 327 328 331 331 331 330 329 329 329 329 328
321 323 325 327 329 328 328 329 328 327 327 328 327 326 326 327 325 324 323 323 324 322 320 320 320 320 320 318 317 317 317 317 318 319 319 319 319 319 318 318 318 318 317 316 315 314 314 314 314 313 312 312 311 311 312 313 314 315 315 316 317 318 319 320 321 322 322 323 323 324 324 325 326 326 325 325 327 329 330 330 328 327 328 329 328
318 318 319 322 326 328 328 328 328 327 328 327 326 325 326 327 325 323 323 323 324 321 320 321 321 321 321 318 317 317 317 317 317 319 319 319 318 318 318 318 318 318 317 316 314 313 314 314 313 313 312 312 312 313 313 314 314 315 315 315 315 315 315 316 318 318 319 320 321 321 321 322 323 324 324 323 325 326 327 327 327 327 327 328 325
317 316 317 318 320 324 327 328 328 328 329 327 326 325 326 326 325 324 323 322 323 322 320 321 322 322 321 319 318 317 317 317 318 319 319 319 318 318 318 317 317 318 317 316 315 315 315 315 314 314 313 313 313 314 314 315 315 315 315 315 315 315 315 315 315 315 316 316 317 318 319 319 320 321 321 321 321 322 322 323 323 324 325 325 323
317 317 318 318 317 321 327 328 327 328 328 326 326 325 325 325 325 324 323 323 323 323 322 322 322 322 322 321 319 319 318 317 318 318 319 319 319 318 317 317 317 317 317 316 316 317 316 315 315 314 314 314 313 314 314 314 315 315 316 315 315 315 315 315 315 315 315 315 315 315 316 317 317 318 319 318 319 320 320 320 320 319 319 320 321
318 317 319 319 319 322 327 327 327 329 328 326 326 325 325 325 325 324 324 323 324 324 323 323 322 321 322 322 321 320 319 317 317 318 318 318 318 318 317 316 316 317 316 316 317 318 317 316 316 314 314 313 313 313 313 313 313 314 314 315 315 315 315 316 316 315 316 316 315 315 314 314 315 316 316 317 317 318 318 319 319 318 319 319 319
318 318 320 321 322 325 326 326 326 328 328 327 326 325 325 325 325 325 325 324 324 324 323 323 323 322 322 323 322 321 320 318 317 318 318 316 316 318 317 315 316 316 316 317 318 318 317 317 317 315 314 313 313 313 313 312 312 312 313 313 314 314 314 314 314 314 314 314 314 315 314 314 314 314 314 315 315 316 317 318 318 318 319 319 319
319 319 320 322 323 325 325 325 327 328 327 327 326 326 325 325 325 325 325 325 324 324 323 323 323 323 323 323 322 322 321 319 317 318 318 317 316 317 316 315 316 316 316 317 318 318 318 318 317 315 314 313 313 313 313 312 312 312 312 313 313 313 313 313 312 312 312 312 312 313 313 313 313 313 313 313 314 315 315 316 317 317 317 318 318
320 320 321 322 324 325 325 325 326 326 327 326 326 326 325 325 325 325 325 325 324 324 323 323 323 324 324 324 324 323 321 320 318 318 319 318 317 316 316 316 316 315 316 318 318 318 319 318 317 316 314 313 313 313 312 312 311 311 312 312 312 312 313 313 312 312 311 311 311 311 312 312 312 312 312 313 313 313 313 314 315 316 316 316 316
320 320 320 322 323 324 324 325 325 325 325 326 326 325 325 325 325 324 324 325 325 324 323 324 324 325 324 324 323 323 322 321 320 320 320 319 318 317 316 316 316 316 318 319 318 318 319 318 317 316 315 313 313 312 312 312 312 311 311 312 312 312 312 312 312 312 311 311 310 310 311 311 310 311 312 312 312 313 312 313 313 314 314 314 315
319 320 320 322 323 324 324 324 324 324 325 325 325 325 325 325 325 324 324 323 323 324 324 324 324 325 325 323 322 322 322 322 322 322 322 320 319 318 317 317 317 317 318 319 318 318 319 318 318 317 315 314 313 313 312 312 312 312 311 311 311 312 312 312 311 311 310 310 310 310 310 310 309 309 310 310 311 311 312 312 312 313 313 313 314
318 319 319 321 323 324 323 324 323 323 324 324 324 325 325 325 325 324 324 322 322 322 322 323 324 324 324 324 323 322 322 322 322 323 323 321 320 318 318 318 317 316 317 317 318 318 318 318 317 317 315 314 314 313 313 312 312 312 311 311 311 311 312 311 311 310 310 310 310 309 309 308 307 307 307 308 308 309 309 310 310 311 312 313 314
316 317 318 319 321 322 322 322 322 323 323 323 323 323 323 324 323 323 323 322 322 322 322 322 323 323 323 324 324 323 323 322 323 323 323 322 320 319 319 318 318 317 316 317 317 317 318 318 317 316 315 314 314 313 313 312 312 311 311 311 310 310 311 311 310 310 309 309 309 308 307 307 306 305 305 305 305 306 307 308 308 309 311 312 313
315 315 315 317 318 319 319 320 321 322 323 323 323 323 322 323 323 322 322 322 322 322 321 321 321 322 322 322 323 323 323 323 323 323 323 322 321 320 319 319 320 319 317 317 317 317 317 317 317 316 315 315 314 313 313 312 312 312 311 311 310 309 309 310 310 309 309 308 307 306 306 306 305 305 305 305 304 305 305 306 307 309 310 311 311
315 314 314 315 315 315 315 316 317 318 320 321 322 323 323 323 323 322 322 322 322 322 322 322 321 321 322 322 322 322 323 323 323 323 323 322 321 321 321 321 321 320 319 318 317 317 317 317 317 316 315 314 314 313 313 312 312 312 311 310 310 309 309 309 309 309 308 308 307 307 306 306 306 305 305 305 305 304 304 304 305 307 308 309 310
314 314 313 314 314 313 313 313 313 314 315 316 317 319 320 322 322 323 323 323 323 322 322 323 323 323 323 322 322 322 322 323 323 323 323 322 322 321 322 322 322 321 320 319 318 318 318 317 317 316 315 314 314 313 312 312 312 311 311 310 309 309 309 309 309 308 307 307 307 307 306 306 306 305 306 305 305 305 304 304 304 304 306 307 308
313 313 314 313 313 313 312 312 312 312 312 312 312 313 314 316 317 319 321 322 323 323 323 323 322 323 324 324 323 323 323 323 323 323 323 323 322 321 322 322 322 321 321 320 319 319 318 318 317 316 315 314 314 314 312 312 312 311 311 310 309 309 309 309 308 307 306 306 306 306 306 305 305 305 305 305 304 304 303 303 304 304 304 305 307
313 313 313 313 312 312 312 312 311 311 311 311 311 311 311 311 312 313 314 316 319 321 323 324 324 323 324 324 323 324 323 324 324 323 323 323 323 322 322 322 321 321 321 320 319 319 319 318 317 317 316 315 314 314 313 312 312 311 310 309 308 308 308 307 307 307 306 305 305 306 305 305 304 305 304 304 303 303 303 303 303 303 304 304 305
313 314 313 313 313 312 312 311 310 310 310 310 310 310 310 311 311 311 311 312 313 315 318 321 322 323 324 324 324 324 324 324 324 324 323 323 324 323 323 322 321 320 320 320 319 319 319 318 318 317 316 316 315 314 313 312 312 311 310 309 308 308 307 307 306 306 305 305 305 305 304 304 304 303 303 302 302 302 303 303 304 304 304 304 304
312 313 313 312 312 312 312 311 310 309 309 308 309 308 309 310 310 310 311 311 312 312 313 314 317 318 320 322 323 324 324 324 323 323 322 323 324 324 324 323 322 321 320 319 318 317 318 318 317 317 316 316 315 314 313 312 312 311 310 309 308 307 307 306 306 305 304 304 304 303 303 303 302 302 301 301 302 302 303 303 304 304 305 305 305
312 312 312 311 311 312 312 311 310 309 308 308 308 308 308 309 309 309 310 311 311 312 312 312 314 315 316 317 319 321 322 323 323 322 322 322 323 323 324 323 322 321 320 319 317 317 317 317 317 317 317 316 315 314 313 312 311 310 309 308 308 307 306 306 305 304 304 303 303 302 302 301 301 300 299 299 299 300 301 301 302 303 303 304 305
310 310 310 310 310 310 311 311 309 308 308 308 307 307 307 308 308 308 309 309 310 311 311 311 312 313 314 314 315 316 318 320 321 322 322 322 322 323 324 323 322 321 320 319 318 317 317 317 317 317 316 315 315 314 313 311 310 309 309 308 307 306 305 304 304 303 302 302 302 301 301 300 299 297 295 294 295 295 296 297 299 300 302 303 304
309 309 309 308 309 310 311 310 309 308 308 308 308 307 307 307 308 307 308 308 309 310 310 310 310 311 312 313 313 314 315 316 318 319 320 321 322 322 323 322 321 320 320 320 318 317 318 317 317 317 316 315 314 312 311 309 308 308 307 306 305 304 303 302 302 301 301 301 301 300 300 300 298 296 295 295 295 295 295 295 296 297 299 300 302
308 308 307 308 309 310 311 310 309 309 308 308 308 307 306 307 307 307 307 307 308 310 310 310 310 310 311 311 312 313 314 314 316 317 318 319 320 321 321 321 320 319 319 318 317 317 318 317 316 316 314 312 311 309 308 307 306 305 304 303 303 302 301 301 301 300 300 300 300 299 299 299 299 299 299 299 298 297 296 295 295 295 295 296 298
307 307 307 307 307 309 310 309 309 308 307 307 306 306 306 306 307 307 307 307 309 310 310 310 311 310 310 310 311 312 313 313 315 315 316 318 319 320 319 319 319 318 318 317 316 317 317 316 316 314 312 310 308 307 306 305 304 303 301 301 301 300 300 300 300 299 299 299 299 299 299 300 300 299 299 298 298 298 297 297 296 295 295 295 295
306 306 307 307 307 308 309 309 308 308 307 306 306 306 306 306 307 307 307 308 309 309 310 310 310 310 310 311 311 311 312 312 314 315 316 317 318 318 319 318 318 318 317 317 317 317 317 315 314 312 308 307 305 304 303 302 301 300 299 299 300 299 299 299 298 298 298 298 298 298 299 299 299 299 298 298 299 299 299 298 298 297 296 296 295
307 306 307 307 308 308 308 309 308 307 307 306 306 306 307 306 307 307 307 307 308 309 310 310 310 310 310 310 311 311 312 312 312 314 315 316 317 318 318 317 317 318 317 317 317 317 316 314 311 308 305 303 301 300 300 299 298 297 296 297 298 298 297 298 298 298 298 298 298 298 299 299 299 299 299 299 299 299 299 299 299 298 298 298 298
306 306 307 308 308 308 308 308 308 307 306 306 306 306 306 306 306 306 306 307 307 308 309 309 310 310 310 310 311 311 311 312 312 313 315 316 316 317 318 317 316 317 317 317 317 316 313 310 308 305 302 300 297 297 296 296 295 295 293 295 297 297 297 297 297 297 298 298 298 298 298 298 299 299 299 298 297 297 297 297 297 297 298 298 298
306 306 307 307 307 307 307 307 307 306 306 306 305 305 306 305 306 306 306 306 307 308 308 308 309 310 310 310 310 310 311 311 312 313 314 315 316 317 317 316 315 316 316 316 315 313 310 307 305 303 301 297 294 294 294 294 293 293 293 295 296 296 296 297 297 297 298 298 298 298 298 298 298 298 298 296 295 295 295 295 295 296 296 296 297
305 306 306 306 306 307 307 307 307 306 306 305 306 306 306 306 306 306 306 306 307 307 308 308 308 309 310 310 310 310 311 311 311 312 313 314 315 315 316 315 314 314 314 313 311 309 306 304 302 300 299 295 293 293 293 293 293 292 293 295 297 296 296 297 297 297 297 297 298 297 297 297 297 297 297 295 294 293 293 294 294 294 295 295 295
305 305 305 305 306 306 306 306 306 306 306 306 305 305 306 306 306 306 306 307 307 308 308 308 308 309 309 310 310 310 310 311 311 311 312 313 314 314 314 314 313 313 311 309 307 305 303 302 300 299 298 295 293 292 292 292 292 292 292 295 296 296 296 297 297 297 297 297 297 296 295 295 296 296 295 294 293 293 292 293 293 293 294 294 294
303 304 304 304 305 306 305 305 306 306 305 305 305 305 306 306 306 307 307 307 308 308 308 308 308 309 309 310 310 310 310 310 310 311 311 313 313 313 313 312 311 310 307 305 303 302 300 299 298 297 296 294 293 292 292 292 292 292 292 294 295 295 296 297 297 297 296 296 297 296 295 295 295 294 294 293 292 291 291 292 292 292 293 293 293
302 302 303 302 303 304 305 306 305 305 305 305 305 305 306 307 307 307 307 308 308 308 308 308 308 309 309 310 310 310 310 310 310 310 311 312 312 311 310 308 307 306 304 302 301 299 297 296 295 294 294 294 293 293 292 292 293 292 291 292 294 295 296 296 296 296 296 296 296 296 296 295 294 293 292 292 291 291 291 291 291 291 291 292 292
302 302 302 302 302 303 304 305 305 305 305 305 305 306 306 307 307 307 307 308 308 308 308 308 309 309 309 309 309 309 310 310 310 310 311 311 310 309 308 306 305 303 301 299 297 296 294 293 292 293 294 294 295 295 294 292 292 291 291 291 293 295 295 295 294 294 295 296 296 296 296 295 294 293 292 292 291 290 290 290 290 290 290 290 290
302 302 302 302 303 303 304 304 305 305 305 305 305 306 306 307 307 307 307 307 307 308 308 308 308 308 308 308 308 309 309 309 309 310 310 308 307 307 306 304 302 300 297 296 294 293 292 292 292 293 293 293 294 294 293 292 292 291 292 292 292 293 292 292 293 294 295 295 296 296 295 294 293 292 292 291 290 290 289 289 289 289 289 289 289
302 302 302 302 302 303 303 304 304 305 305 305 305 306 306 307 307 307 307 307 307 307 307 306 306 306 307 307 307 307 308 309 309 309 308 306 305 304 302 300 298 296 295 295 294 293 293 293 293 294 294 294 294 294 293 292 292 292 291 291 291 291 291 291 293 294 294 295 295 295 294 294 292 291 290 290 289 289 288 288 288 288 288 288 288
301 301 302 302 302 303 303 304 304 305 305 305 306 306 306 307 307 307 306 306 306 306 305 305 305 306 306 306 307 307 308 308 308 307 306 304 302 300 299 297 297 296 296 296 296 295 296 296 296 296 296 296 297 296 294 293 292 291 291 291 291 291 291 291 291 292 293 294 294 293 292 291 290 289 289 289 288 288 289 289 289 289 289 289 288
301 301 302 302 303 303 304 304 305 304 304 305 305 306 306 306 306 306 306 305 305 305 305 305 305 305 306 306 307 307 306 306 306 305 304 302 299 298 298 298 298 297 297 296 297 296 297 297 297 297 297 296 295 295 295 294 293 293 293 293 293 292 292 291 291 292 292 292 292 291 290 290 289 289 289 289 289 289 290 290 289 289 289 289 289
301 301 302 303 303 303 304 304 304 304 304 305 305 305 305 305 305 305 305 305 305 305 305 304 304 305 306 305 305 304 303 303 303 303 302 300 298 299 299 298 297 297 296 296 296 296 296 296 296 296 296 295 295 295 295 295 295 295 295 294 293 293 292 292 291 292 292 292 291 291 290 290 289 289 289 290 290 290 290 290 290 290 290 290 290
302 302 302 303 303 303 303 304 304 304 304 305 305 305 305 305 305 305 305 305 304 304 303 303 303 304 304 303 302 301 301 300 300 300 299 298 298 298 297 297 296 296 296 296 296 295 295 295 295 295 295 295 295 296 296 295 295 295 295 294 294 294 293 293 292 293 293 292 291 290 290 290 290 290 290 290 290 290 290 291 291 291 291 291 291
302 302 302 302 303 303 303 303 304 304 304 305 305 305 305 305 304 304 304 304 303 303 302 302 302 302 301 300 299 299 299 298 298 297 297 297 297 297 296 296 296 296 296 296 296 295 295 295 295 295 295 296 296 296 295 294 294 293 293 293 293 293 293 293 292 292 291 290 290 290 290 291 290 290 291 291 291 291 291 291 291 291 291 291 291
302 302 302 302 302 303 303 304 304 304 305 305 305 305 305 304 303 303 303 303 302 301 300 300 299 299 299 298 298 298 298 298 297 296 296 296 296 296 296 296 296 296 296 296 296 295 295 295 295 295 295 295 295 294 293 292 292 291 291 291 291 291 291 290 290 289 288 288 290 290 291 291 290 290 291 290 290 291 291 290 291 291 291 291 291
301 302 302 302 303 303 304 304 304 305 305 305 305 304 304 303 302 301 301 301 300 299 299 298 298 298 298 297 297 298 298 298 297 296 297 296 296 296 296 296 296 295 295 295 295 294 294 294 294 293 293 293 293 292 291 291 291 291 290 290 290 289 289 288 288 287 287 289 290 291 291 291 290 290 290 290 290 290 290 290 290 290 290 290 290
302 302 302 302 302 303 304 304 304 304 305 305 304 303 302 301 300 300 300 299 298 298 298 297 297 297 297 296 296 297 297 297 297 297 297 296 295 294 293 294 294 294 294 293 293 292 292 292 292 292 291 291 291 291 290 290 290 290 290 289 289 289 289 288 288 288 288 290 291 291 291 291 290 290 290 290 290 290 290 290 290 289 289 289 290
Wind_Speed
10 12 13 13 12 13 13 12 12 12 13 15 14 13 12 11 11 11 11 11 10 9 8 7 6 5 5 5 5 4 4 5 5 5 5 5 5 4 3 2 1 1 1 2 2 1 2 3 2 3 3 3 5 5 6 8 9 8 8 8 10 13 14 14 12 9 7 8 8 9 12 12 9 10 11 11 13 13 14 14 15 15 15 14 13
9 11 13 14 13 14 14 12 14 14 14 15 15 14 13 12 12 12 12 12 10 9 7 6 5 5 5 5 5 5 5 5 6 6 6 6 5 4 4 3 3 3 2 3 2 2 2 2 2 1 1 2 1 2 4 5 6 6 6 7 8 10 12 13 13 10 8 7 5 6 9 9 9 13 16 13 11 11 12 14 14 15 15 15 13
10 11 13 15 15 15 15 14 15 15 15 16 15 15 15 13 12 12 13 12 10 9 8 7 6 5 5 5 5 5 5 5 6 7 6 6 6 5 6 6 5 5 5 4 4 4 3 3 3 2 2 2 3 3 2 2 3 3 4 5 6 7 7 8 11 10 9 6 4 4 4 4 4 10 16 16 10 7 9 12 14 15 15 15 13
11 11 12 14 16 17 17 16 16 15 15 16 17 16 16 14 13 13 13 12 11 10 8 8 9 8 6 6 6 5 5 6 6 7 6 6 6 6 6 6 6 6 6 6 5 5 5 5 5 5 4 4 4 4 4 3 2 2 2 2 4 6 7 5 5 7 8 6 3 3 2 2 2 3 8 13 10 6 6 9 11 12 13 13 13
10 12 13 14 17 18 18 18 17 17 17 17 18 18 16 15 15 15 14 13 12 11 10 10 11 10 9 8 7 6 7 7 7 7 7 6 6 6 6 6 6 6 6 6 6 6 6 6 6 6 5 4 4 4 4 4 3 3 2 2 1 4 3 2 1 2 4 5 5 2 1 2 2 0 2 6 9 7 5 6 7 8 10 11 12
10 12 13 14 17 18 19 19 19 19 18 18 18 19 18 16 16 16 14 13 13 12 12 11 11 11 11 10 9 8 8 7 7 7 7 6 6 7 7 7 7 7 6 6 6 6 6 6 5 5 5 4 3 3 4 4 4 4 3 2 2 3 1 2 2 1 0 3 4 1 1 0 1 1 1 1 6 7 6 7 6 5 5 7 9
10 11 13 14 16 17 18 20 20 20 19 17 17 19 19 17 17 17 15 14 14 13 13 12 11 12 11 10 8 8 8 8 8 8 8 7 8 8 8 7 7 7 6 6 5 5 5 5 5 5 5 5 4 4 4 4 4 4 4 4 3 4 2 2 2 1 1 2 1 4 4 3 3 2 1 1 2 4 5 8 8 4 3 4 6
7 10 12 13 16 18 19 20 20 20 18 17 17 20 20 17 18 18 16 14 15 15 15 13 12 12 11 9 8 7 7 9 9 9 8 8 8 8 8 8 7 7 7 6 6 6 6 6 6 6 6 6 5 5 5 4 4 4 5 4 4 4 3 2 2 2 2 2 3 4 4 3 2 3 3 2 1 1 2 4 6 4 4 5 6
6 7 9 11 15 19 20 20 21 20 18 17 18 20 20 18 18 18 17 15 15 17 16 14 13 12 11 10 9 7 7 8 9 9 9 9 8 8 8 8 7 7 7 7 8 8 8 8 7 7 7 6 6 6 6 5 5 5 5 5 4 5 5 4 3 2 3 3 3 3 3 3 1 1 3 3 2 1 1 1 2 4 5 4 5
6 7 8 10 13 17 19 19 21 20 18 17 18 19 20 18 18 19 18 16 16 18 18 16 14 13 12 12 10 9 8 8 9 9 9 9 8 8 8 8 8 7 8 8 8 8 8 7 7 7 7 7 6 7 6 6 7 7 7 6 6 5 5 5 4 3 3 3 3 3 3 4 4 2 2 3 3 3 3 3 3 3 3 4 7
6 7 7 9 12 15 17 19 20 20 18 18 18 20 20 19 19 20 20 17 17 19 19 17 16 14 13 13 12 11 10 9 9 9 9 9 9 9 8 7 8 8 8 8 8 8 7 7 7 7 7 7 6 6 6 6 6 7 7 7 7 6 5 5 5 4 3 3 3 2 2 2 2 2 2 3 4 4 4 4 5 5 5 6 7
6 6 6 6 9 13 17 19 20 19 18 18 19 19 20 20 20 20 20 19 18 19 20 18 17 15 14 13 13 13 12 11 10 10 10 9 9 9 8 8 8 8 8 8 8 8 7 6 6 6 6 6 6 6 6 5 5 5 6 6 6 6 6 5 5 4 3 3 3 2 2 2 2 2 2 2 3 4 4 5 5 6 7 7 6
5 5 5 4 5 8 13 17 19 19 19 19 18 19 19 19 20 21 21 21 19 19 20 18 18 17 15 14 14 13 13 12 10 10 10 9 9 9 9 9 9 9 9 9 10 9 8 7 6 5 5 5 5 6 6 6 5 5 5 6 6 6 6 5 5 5 4 4 3 3 2 2 2 2 2 2 3 4 5 5 6 6 7 8 8
5 5 5 3 1 4 8 12 15 15 16 17 17 18 18 18 20 21 20 20 19 19 19 19 19 18 16 14 13 13 13 13 11 10 10 10 9 9 10 9 9 9 10 9 10 10 8 7 7 6 5 5 5 6 5 5 5 5 6 6 6 6 6 6 6 5 5 4 4 3 3 3 2 2 2 2 3 4 4 5 6 7 7 9 9
5 6 6 5 2 2 6 8 10 10 12 14 14 15 16 16 17 19 19 19 19 19 20 20 19 18 16 15 14 13 13 13 12 11 11 11 10 10 10 9 9 10 10 10 11 11 9 9 8 7 7 6 5 5 5 5 4 5 5 5 5 5 5 5 5 5 5 5 4 4 3 3 4 3 3 3 3 4 4 5 6 6 6 6 7
7 6 7 6 4 2 4 6 7 8 9 11 11 12 14 13 14 16 16 16 17 18 19 19 18 17 16 16 14 13 13 13 13 12 12 12 11 11 11 10 10 9 10 11 11 11 10 10 9 8 8 7 6 6 5 5 4 4 4 5 5 5 5 5 5 5 5 4 4 4 3 3 4 4 4 4 4 4 5 6 6 7 6 5 5
9 8 8 7 5 4 4 4 5 6 7 9 10 10 12 13 13 14 14 13 14 16 16 17 17 16 16 17 17 16 15 14 13 14 14 14 13 12 11 11 11 10 10 11 12 11 10 10 9 9 9 8 7 7 6 6 5 5 5 5 5 5 5 4 4 4 4 4 4 3 3 3 4 4 4 4 5 5 6 6 7 7 8 6 5
10 10 9 8 7 7 6 5 5 4 4 6 8 8 9 11 12 13 14 14 13 14 15 16 16 16 16 18 19 19 17 16 15 14 14 14 14 13 12 12 12 11 11 11 12 12 11 11 10 9 9 8 8 7 7 6 6 5 5 5 5 5 5 4 4 3 3 3 3 3 2 2 3 4 4 4 5 6 6 7 7 8 8 8 8
9 10 9 9 9 10 9 8 7 6 3 3 4 5 5 7 8 10 12 13 12 12 13 14 15 16 15 16 19 19 18 17 16 14 14 14 15 15 14 14 14 14 13 13 13 13 12 12 11 10 10 9 9 8 8 7 6 5 5 5 5 5 4 4 4 3 2 2 2 2 1 1 2 3 3 4 5 6 7 8 8 8 9 9 10
8 9 10 10 11 11 11 9 9 8 6 5 4 3 2 3 5 7 8 9 10 10 12 13 14 15 15 15 16 17 18 17 16 15 15 15 15 15 15 15 15 15 15 15 15 15 14 14 13 12 11 11 10 9 8 8 7 6 6 5 5 5 5 4 4 3 3 2 2 1 0 0 2 3 3 5 6 6 7 9 9 9 10 10 11
8 9 10 11 12 13 12 12 12 10 9 8 6 4 4 2 1 4 6 7 9 10 11 12 13 14 16 16 16 16 15 15 14 15 15 15 15 15 15 15 15 16 16 17 17 16 16 16 15 14 13 12 11 10 9 8 8 7 7 6 6 6 5 5 4 4 4 2 1 1 1 1 2 3 4 5 6 6 8 9 9 10 10 10 11
8 9 9 10 13 14 15 15 15 14 13 11 8 6 7 5 2 2 4 5 6 8 9 10 11 13 15 16 16 16 15 15 15 15 16 16 15 15 15 15 16 16 17 18 18 18 18 17 16 16 15 13 12 12 11 10 9 9 8 8 7 7 6 6 5 4 4 2 2 2 2 2 3 4 5 7 7 8 9 9 9 10 11 11 11
8 8 9 10 12 13 15 16 16 16 15 14 13 12 12 9 5 2 1 1 3 6 7 7 9 13 14 14 14 14 15 15 16 17 17 17 16 15 15 15 16 16 16 18 19 19 20 19 18 17 16 15 14 13 12 11 11 11 10 9 8 8 7 7 6 4 3 2 2 3 3 4 4 6 7 8 9 8 9 9 10 10 11 12 12
7 7 8 9 11 12 12 13 14 15 15 15 15 15 15 13 10 7 6 4 1 4 6 6 9 12 12 12 12 12 13 14 16 17 17 16 16 16 15 16 16 15 16 18 19 20 21 21 20 18 17 17 16 15 14 13 12 12 11 10 9 8 8 7 6 5 3 3 3 4 5 5 6 8 9 10 9 9 9 10 11 11 11 12 13
6 7 7 8 9 10 11 11 12 13 13 13 13 13 13 12 11 10 9 7 4 1 1 3 7 10 10 11 11 10 11 13 15 16 16 15 15 15 15 15 15 16 17 18 18 19 19 19 20 19 19 19 18 17 16 15 14 13 12 11 10 9 8 7 6 5 4 4 4 4 5 6 7 9 10 11 11 11 11 11 11 11 12 12 12
6 6 7 8 8 9 10 11 11 11 11 11 11 11 11 10 9 9 8 7 7 6 6 3 3 5 6 9 9 9 10 11 13 14 14 15 16 16 15 15 15 17 18 16 15 16 17 19 20 21 21 21 20 19 18 16 15 14 13 12 11 10 8 7 6 5 5 4 4 5 6 7 8 10 11 11 11 12 12 12 12 12 12 12 13
4 5 6 7 7 8 10 10 10 10 10 10 9 9 9 8 8 7 7 7 8 8 7 5 4 4 4 5 5 7 8 10 13 13 13 14 15 15 16 16 16 18 18 18 19 21 22 23 23 23 23 23 21 20 19 18 17 15 14 13 11 10 9 7 6 5 5 5 6 7 7 8 9 10 11 11 11 11 12 12 12 12 12 13 14
4 4 5 6 6 7 8 8 9 9 9 9 8 8 8 8 7 8 7 7 7 6 6 4 4 4 3 3 4 5 6 8 11 13 14 15 14 15 17 17 18 19 19 20 22 25 25 25 24 23 22 22 21 20 19 18 17 16 14 12 11 9 8 6 5 5 5 6 7 8 9 9 9 10 12 12 13 13 13 13 13 13 13 14 14
4 4 5 5 5 5 6 7 7 8 8 8 8 8 8 8 8 8 8 7 7 6 6 5 5 4 4 4 5 5 6 6 8 10 11 12 13 15 16 16 18 19 19 20 22 23 25 26 24 23 21 20 19 18 18 18 17 15 14 12 10 8 7 5 4 4 5 7 8 9 10 10 12 14 16 17 17 17 18 17 16 14 14 14 15
4 4 4 4 4 5 5 6 7 7 8 7 7 8 8 8 8 8 8 8 8 7 7 7 7 6 6 6 6 6 7 7 8 8 8 9 11 12 13 15 17 17 18 19 19 20 22 22 21 21 20 18 16 17 18 19 17 14 12 10 9 7 6 4 4 5 6 7 9 10 11 12 15 18 19 18 18 18 19 20 19 18 17 16 16
4 4 4 3 4 4 4 5 6 7 7 7 8 8 7 7 7 8 8 8 8 7 7 7 7 7 7 7 7 7 8 8 8 9 8 8 9 10 12 15 15 15 17 17 17 18 19 19 19 20 19 17 17 19 21 21 19 15 12 9 8 7 5 4 4 5 6 8 9 10 11 12 14 15 16 16 17 19 20 21 21 21 21 20 19
4 3 3 3 3 3 4 6 6 6 7 8 8 9 8 8 8 8 8 8 8 7 8 8 8 8 8 8 8 8 8 9 9 9 9 9 9 10 12 13 14 15 16 16 17 18 19 20 20 20 20 21 21 21 21 20 18 15 12 8 6 5 4 4 4 5 7 8 9 10 11 12 12 13 15 16 17 19 20 21 21 21 22 22 23
3 3 3 3 3 3 4 5 5 6 7 8 9 8 8 8 9 8 8 8 8 8 8 8 9 9 9 9 10 9 9 9 9 9 9 10 10 11 12 12 14 15 16 16 17 18 20 22 21 19 20 22 22 21 20 18 15 13 11 7 4 3 3 4 4 5 7 8 9 11 12 12 12 13 15 15 15 16 17 18 19 20 22 23 24
3 2 3 3 3 3 3 4 4 5 6 7 7 8 8 9 9 9 9 9 9 8 8 9 9 9 9 10 10 10 10 10 10 10 10 10 11 12 12 12 13 14 15 16 17 18 20 20 20 20 21 23 22 20 18 16 13 10 7 5 4 3 3 4 5 6 8 9 10 11 12 13 12 12 13 13 13 13 14 15 16 18 20 21 22
2 2 3 3 3 3 4 4 5 6 7 8 8 9 10 11 11 11 12 11 10 10 10 10 10 10 10 10 10 10 11 11 11 11 11 11 11 11 12 12 13 14 16 16 17 19 19 19 21 23 24 24 22 18 15 12 10 6 3 3 4 3 4 5 6 7 8 9 10 11 12 13 13 12 12 13 13 13 14 15 16 17 19 19 20
3 3 4 5 5 5 5 5 6 7 8 9 10 10 11 12 13 13 14 13 12 12 12 12 11 11 11 11 11 11 11 11 12 11 12 12 11 12 12 12 13 14 15 15 16 17 19 22 24 26 26 25 20 16 12 9 6 3 1 2 3 4 5 5 6 8 8 9 10 10 11 12 12 12 13 14 16 15 15 17 18 19 20 20 21
4 4 5 6 6 6 6 6 7 8 9 10 11 11 11 12 13 14 14 14 13 13 13 13 13 12 12 12 12 12 12 12 12 13 13 13 11 11 11 11 13 15 14 14 15 18 21 25 27 27 27 25 19 14 10 7 4 3 2 1 4 5 5 6 8 8 9 10 10 11 12 13 13 13 13 14 16 16 17 19 21 22 23 24 24
5 6 6 7 7 7 7 8 9 10 10 11 11 11 11 12 13 14 14 14 14 14 15 15 14 14 14 14 13 13 13 13 14 14 13 12 12 12 11 11 13 14 13 14 17 21 24 26 27 26 23 20 17 12 9 6 4 3 3 2 5 6 6 8 9 9 10 11 11 14 15 14 14 14 15 17 18 18 19 21 23 24 24 25 25
7 8 8 8 8 8 9 9 10 11 12 12 12 12 12 12 13 13 14 14 14 15 15 16 16 16 15 15 14 14 14 15 15 14 14 13 12 10 8 8 10 13 15 17 22 26 27 25 23 21 18 16 15 12 8 6 4 3 3 3 5 7 8 9 10 11 12 12 13 15 15 15 16 16 17 18 19 20 21 22 23 24 25 26 24
10 9 9 10 10 9 9 10 11 12 13 13 13 12 11 12 13 13 14 14 15 15 16 16 17 16 16 16 15 15 16 16 15 15 14 11 7 8 9 10 12 15 19 24 28 29 27 23 20 18 16 14 13 10 7 5 3 2 4 5 6 8 9 10 11 13 14 15 15 15 14 14 15 16 17 19 20 22 23 23 24 25 26 25 23
11 11 10 11 11 11 11 12 12 12 13 13 12 12 12 13 13 14 14 15 16 16 16 17 17 17 17 17 17 16 16 16 17 16 12 8 9 11 12 14 17 22 27 29 29 28 26 23 20 17 15 13 11 8 5 3 2 2 4 6 7 8 10 12 14 16 16 16 16 15 14 14 17 19 21 23 24 26 26 25 26 27 28 27 26
12 11 11 12 12 12 12 13 13 13 14 13 13 13 14 14 14 15 16 16 16 17 17 18 19 20 19 19 18 18 18 18 18 15 10 10 11 13 16 21 26 30 32 30 28 26 25 22 19 16 13 10 8 7 5 2 0 2 5 7 8 10 12 14 16 17 17 16 16 16 15 17 20 21 23 25 27 29 29 29 29 30 31 31 31
14 13 12 12 13 13 14 14 14 14 14 13 13 14 14 15 15 16 16 16 17 18 20 21 22 22 22 21 20 20 19 17 14 13 12 12 14 20 26 31 32 31 28 26 24 23 21 18 15 13 11 8 6 5 3 1 2 5 8 10 12 14 15 15 15 15 17 16 16 16 17 19 22 23 26 28 30 30 30 29 29 30 31 31 30
15 15 14 13 14 14 14 15 15 15 14 14 13 14 14 15 17 17 17 17 18 20 21 23 24 23 22 22 21 19 17 14 12 13 15 17 23 28 31 31 28 24 21 19 18 17 16 14 13 12 11 8 6 4 1 2 5 7 9 11 13 14 15 14 13 14 16 16 17 18 21 24 26 28 29 30 30 29 28 27 27 28 28 28 27
15 15 14 14 14 14 15 16 16 16 16 15 14 14 16 17 18 18 18 19 20 21 22 23 23 22 22 20 16 13 12 12 14 17 22 28 31 30 26 23 20 18 17 16 15 14 13 13 11 11 10 8 5 4 1 3 7 9 10 12 14 15 14 13 13 14 16 17 20 23 25 26 27 28 28 27 26 25 25 24 25 25 25 24 24
16 15 14 14 15 15 15 17 17 17 17 16 15 15 16 17 17 18 19 19 20 21 22 22 22 20 16 12 9 8 10 13 18 24 29 31 29 24 21 19 17 16 15 15 14 13 13 12 11 9 8 7 5 4 3 3 6 8 9 11 14 14 13 14 16 17 18 20 22 23 24 25 25 24 24 24 23 23 23 23 23 23 23 23 22
17 16 16 16 16 16 16 17 17 17 16 16 15 15 15 15 15 16 18 19 19 20 21 19 16 13 10 8 10 12 15 18 23 28 31 28 22 20 20 19 17 17 15 14 13 13 12 12 10 8 7 7 6 5 5 5 6 7 8 10 11 12 12 14 15 16 17 19 21 22 22 22 22 22 21 21 22 22 22 22 21 20 20 20 20
17 17 17 18 17 17 17 17 17 16 16 15 15 14 13 13 15 16 17 18 18 17 15 11 8 7 9 13 17 21 22 22 24 28 29 26 22 21 21 19 17 17 15 14 13 13 11 11 10 9 7 6 6 6 6 7 7 7 8 9 10 11 12 12 13 15 17 19 19 19 19 19 18 19 19 19 19 19 18 18 18 18 19 20 21
18 18 19 18 18 17 17 17 16 16 15 14 14 12 11 12 14 14 14 14 12 9 6 7 9 12 16 20 22 22 21 21 23 25 24 22 20 19 19 17 16 15 15 14 13 12 11 10 9 9 8 7 6 6 6 7 7 7 8 9 10 10 11 11 13 15 17 17 16 16 16 16 16 17 17 18 18 18 18 18 18 18 19 20 20
20 19 19 18 18 17 17 16 16 15 14 14 12 10 9 10 11 9 8 7 5 7 9 11 13 16 19 20 20 20 20 21 22 22 19 18 18 18 18 19 18 17 17 16 15 13 12 11 11 10 9 8 7 6 6 7 7 8 9 10 10 10 10 11 13 14 14 14 14 15 15 15 16 16 17 17 18 18 18 19 19 19 19 20 20
20 19 18 19 18 17 16 16 15 14 13 12 10 6 5 5 4 2 1 4 9 12 12 13 15 18 20 22 24 24 21 17 17 18 18 18 20 20 20 20 19 17 16 16 15 15 14 13 12 11 10 8 8 8 8 9 8 9 10 10 10 10 9 11 13 13 12 13 14 15 15 15 16 16 17 17 18 19 19 20 20 20 20 20 21
Wind_Direction
162 167 174 180 181 181 183 182 179 179 184 185 183 181 182 181 175 171 175 176 174 173 172 170 164 158 157 151 144 141 136 131 129 120 110 103 102 102 99 91 84 113 186 185 191 205 201 214 223 221 224 224 223 222 223 224 221 216 217 220 222 223 225 226 226 224 231 244 252 251 247 247 246 247 260 272 255 238 234 233 231 231 229 228 232
164 169 179 184 184 183 185 185 184 184 184 184 182 182 183 183 179 175 176 178 180 179 174 168 163 158 155 147 142 138 130 130 129 119 112 108 104 99 95 92 96 105 116 132 152 153 155 172 186 185 168 178 188 194 203 209 211 211 216 219 221 225 225 223 220 215 225 238 248 260 253 245 247 253 256 265 263 241 235 234 231 234 233 230 231
180 179 183 188 189 188 189 191 193 190 186 184 183 181 180 181 179 177 177 178 181 182 177 167 160 151 145 143 139 133 124 116 115 116 118 115 110 106 102 101 100 104 109 116 124 121 121 127 127 110 92 92 92 95 121 159 181 192 210 223 220 221 224 221 217 215 219 224 226 240 245 238 248 258 249 244 244 232 236 240 234 234 234 230 228
195 189 187 191 194 192 193 195 194 190 187 186 183 181 180 181 180 178 179 179 180 183 175 164 162 154 143 141 135 130 128 122 120 122 123 119 113 110 107 107 105 104 106 110 114 114 112 113 114 108 89 73 76 76 69 72 89 117 168 222 236 233 222 207 217 223 216 208 212 215 214 242 246 246 233 234 242 238 236 243 239 241 240 234 230
207 200 195 195 197 197 196 196 193 191 191 188 185 182 181 182 182 181 182 181 181 182 175 166 164 157 147 146 143 136 138 142 140 135 132 127 120 115 113 114 113 108 106 108 110 111 111 111 112 113 105 91 90 88 77 65 63 69 82 112 282 272 237 142 99 238 224 215 219 199 163 230 251 105 194 236 253 260 264 255 248 251 244 238 237
219 213 206 202 203 200 198 196 194 195 196 191 186 183 183 184 184 183 184 184 183 184 181 173 167 161 155 157 158 155 154 153 151 145 142 134 125 123 120 118 118 115 113 112 111 112 111 111 109 108 104 97 91 88 86 74 67 59 40 57 52 357 350 89 90 108 355 218 226 295 57 66 62 100 95 261 248 248 260 261 266 285 263 245 246
225 223 219 213 207 202 200 199 197 199 197 189 183 184 186 185 184 185 185 186 184 185 186 180 174 170 166 165 166 163 155 148 146 143 139 132 127 128 125 122 121 120 118 116 119 118 113 110 104 102 98 94 88 76 71 64 63 60 43 42 41 20 8 37 64 102 82 91 25 12 33 38 43 74 80 6 239 231 244 247 251 286 309 276 270
233 230 227 223 215 208 204 199 199 202 195 186 183 184 187 186 184 185 187 188 186 188 189 185 182 176 171 171 169 164 154 146 146 142 139 136 131 130 128 126 124 121 119 118 120 119 113 110 103 100 95 90 87 76 65 61 58 56 51 47 40 33 26 15 10 338 336 29 18 9 26 28 38 51 37 15 337 285 271 246 237 266 293 271 264
261 251 241 233 224 217 209 200 197 199 194 189 185 183 185 186 184 185 189 190 189 192 191 189 188 182 175 175 172 167 156 152 152 147 144 142 138 136 134 131 128 124 122 120 119 117 112 109 104 100 95 87 84 79 71 70 68 64 59 52 50 49 43 35 25 6 352 352 345 334 334 316 274 75 39 12 339 296 321 321 282 310 310 284 273
280 272 262 249 236 225 216 205 195 192 192 190 184 180 182 185 184 185 190 192 192 194 193 191 192 188 182 178 175 171 165 162 160 154 154 153 149 148 144 142 139 133 131 130 127 122 116 112 107 101 97 91 88 86 80 75 72 71 70 67 63 59 53 50 45 36 32 23 357 329 310 303 284 259 276 301 286 265 283 293 277 288 281 285 294
298 287 277 264 246 227 216 205 192 186 185 184 182 180 182 185 186 187 190 193 195 195 194 193 194 194 189 182 179 177 174 173 171 166 166 164 161 160 159 156 151 147 144 142 139 133 125 119 113 106 102 99 97 95 88 82 78 76 74 72 70 68 66 64 58 51 46 43 32 8 353 345 324 300 294 298 289 278 284 283 272 269 265 273 279
315 306 298 277 250 222 206 199 191 184 180 182 182 181 182 186 187 189 191 194 195 196 195 194 196 198 196 189 184 181 181 183 184 180 176 174 173 169 166 165 162 160 158 154 154 148 138 130 122 112 105 102 101 100 98 95 90 85 81 78 77 74 72 70 67 62 55 51 52 41 24 22 7 348 335 315 301 296 295 289 282 283 282 277 266
334 330 327 305 254 217 203 199 194 185 179 181 182 181 183 186 189 191 193 194 195 195 195 196 198 201 201 196 190 186 186 190 193 191 187 185 182 178 175 175 173 172 171 168 165 161 154 146 137 125 115 108 106 105 104 103 99 95 92 88 85 82 78 78 74 66 58 53 54 54 49 45 34 15 349 316 303 296 287 284 287 289 288 283 276
360 5 3 349 277 201 202 202 196 187 180 180 181 182 183 186 191 194 195 195 194 195 196 199 202 204 205 202 196 191 189 191 197 198 195 196 192 187 186 184 182 182 181 178 173 170 165 159 152 141 130 121 115 112 107 105 102 99 98 96 91 88 85 82 77 69 56 43 36 32 33 34 29 19 351 322 311 298 288 293 297 291 283 278 275
27 34 32 23 33 162 185 192 191 184 177 176 179 182 185 187 191 195 196 195 195 196 198 200 204 206 207 207 203 199 195 194 200 203 200 202 201 195 195 195 193 189 187 183 178 176 172 167 162 153 146 141 132 127 121 112 108 102 102 102 100 97 97 92 84 76 62 46 32 17 11 18 14 4 351 335 328 317 306 303 299 291 282 274 273
35 41 45 39 41 108 155 173 180 176 170 171 177 181 186 189 192 197 198 197 197 199 200 202 204 206 208 210 207 205 203 200 201 203 202 204 205 203 202 201 199 195 190 185 182 181 179 173 169 165 160 156 151 147 142 134 128 121 117 115 114 112 110 106 98 88 77 63 47 26 14 19 9 354 346 340 332 322 310 300 292 291 295 292 284
38 42 47 47 51 73 108 139 154 162 167 173 181 184 188 192 193 195 198 199 200 202 203 203 204 206 209 212 213 212 211 209 207 205 204 206 209 209 209 205 203 200 192 185 185 186 185 180 177 173 169 167 165 162 158 154 148 142 140 135 132 132 124 116 110 100 92 82 68 51 36 28 12 355 341 335 326 314 305 297 291 290 292 294 294
44 49 50 51 53 58 68 85 104 129 157 170 177 183 191 197 197 196 198 200 201 201 204 205 205 207 211 214 218 219 219 219 217 214 210 211 211 210 210 207 204 202 196 189 188 188 188 188 185 180 178 176 174 172 167 164 162 156 152 148 145 147 142 132 123 115 107 98 84 66 53 40 18 353 335 328 319 308 300 291 286 284 281 282 287
47 51 52 54 56 58 61 67 79 89 98 132 157 168 185 200 203 203 203 204 204 202 204 207 209 211 213 217 220 222 224 224 223 220 215 214 214 212 211 209 205 203 201 196 193 192 191 192 192 190 187 185 182 180 176 174 172 166 163 159 155 158 160 150 143 135 125 121 110 86 64 51 8 340 325 321 313 305 300 295 288 281 274 272 277
47 54 56 57 60 63 67 71 75 79 80 81 88 104 142 194 209 209 209 208 209 206 206 211 215 216 218 220 222 224 226 226 225 223 220 220 219 215 214 212 207 204 202 199 198 198 196 195 197 196 193 192 190 187 184 182 181 177 174 169 161 166 172 165 161 156 151 150 142 124 159 55 346 326 316 313 305 298 296 293 288 282 275 270 269
51 57 59 61 62 64 67 71 73 74 74 74 72 78 97 111 196 213 209 210 219 222 219 220 224 224 224 223 226 228 230 230 229 226 225 226 223 220 218 215 211 208 203 200 201 202 201 199 199 200 199 197 194 192 190 189 188 183 177 173 168 174 177 171 170 170 166 170 187 260 262 269 308 314 311 307 302 297 293 287 281 277 274 271 269
58 61 62 64 64 64 66 67 69 69 70 73 79 83 88 87 92 205 205 201 218 230 232 234 235 235 232 229 228 232 235 236 235 233 231 230 228 225 223 218 213 211 206 204 204 203 202 203 203 203 203 201 199 198 195 195 195 187 179 177 177 179 179 173 173 179 181 188 221 269 291 295 296 303 307 305 304 299 293 287 281 278 276 274 272
67 65 64 65 66 67 68 67 67 67 66 68 68 67 66 66 68 53 313 216 220 234 239 245 245 243 240 234 228 229 233 236 238 238 236 234 232 230 227 223 220 216 211 209 208 204 202 203 204 204 203 202 201 199 199 200 199 193 187 184 181 181 180 175 178 185 192 210 244 276 296 302 301 305 306 305 304 298 293 290 285 279 275 274 273
82 75 71 70 68 67 65 65 66 66 64 62 60 61 61 58 58 53 38 29 311 238 231 234 246 250 248 241 236 232 232 236 239 241 241 238 234 231 229 226 224 222 217 213 210 207 205 203 202 204 203 201 200 199 200 201 200 196 192 187 183 182 180 180 184 189 200 226 256 281 294 302 304 305 306 305 303 297 294 290 285 280 275 272 270
93 87 80 74 69 66 62 59 60 61 61 60 58 58 58 55 52 49 45 40 31 331 227 224 247 255 254 249 246 242 239 241 243 245 246 244 240 236 233 228 224 222 218 214 210 208 209 207 204 204 203 201 201 200 199 200 198 194 191 187 184 183 182 185 190 196 208 224 245 271 287 297 302 304 304 303 301 298 294 288 284 281 279 276 273
95 88 82 76 69 66 62 57 55 55 55 56 56 55 54 53 49 43 38 34 29 25 31 26 289 272 261 253 250 246 244 245 246 247 249 251 248 243 240 236 230 224 215 206 205 210 214 213 209 207 205 203 201 200 199 199 195 190 188 185 183 182 185 189 194 204 216 225 244 266 281 289 295 299 299 298 296 294 290 286 284 282 280 279 276
99 88 82 77 70 63 59 56 54 53 52 52 52 51 48 47 44 39 33 26 19 18 20 16 353 328 301 286 277 261 251 246 243 242 242 246 249 246 243 238 232 227 212 202 213 221 218 215 213 210 208 204 200 199 198 195 191 187 184 181 181 183 187 192 201 215 232 245 260 272 278 283 289 292 294 294 294 292 287 284 281 280 279 278 275
114 94 82 74 71 64 58 56 53 49 48 45 43 43 41 35 32 29 25 21 14 7 2 354 340 325 318 322 309 282 261 248 243 240 237 239 241 240 241 235 228 226 214 210 225 228 218 216 217 214 211 206 199 196 194 190 186 182 179 178 179 184 188 196 211 229 246 261 271 277 279 281 281 283 286 287 287 286 285 284 282 280 278 275 274
123 101 85 71 65 61 56 54 50 43 41 38 33 31 27 22 21 18 13 10 5 354 344 336 328 321 322 319 304 288 274 260 250 244 240 240 238 238 239 233 226 228 224 223 233 233 221 217 216 213 211 206 198 195 191 184 180 175 173 173 175 181 189 198 220 250 264 273 278 281 280 276 273 279 285 286 283 279 276 275 276 277 278 276 274
123 98 86 74 64 60 55 51 45 36 30 28 25 21 14 10 10 6 2 359 350 343 338 332 326 323 317 305 294 285 280 274 266 257 250 246 242 240 238 231 227 234 235 232 237 240 230 221 214 209 205 198 190 188 183 176 173 169 167 168 171 174 183 199 229 262 274 281 283 283 283 279 279 287 293 294 289 282 275 271 269 269 270 272 274
125 100 86 78 70 58 45 42 38 28 21 16 13 10 4 358 355 351 350 346 337 331 325 319 316 313 307 298 291 283 280 278 274 269 263 253 245 237 233 231 228 233 236 233 234 235 227 219 212 200 190 185 183 183 182 179 177 171 161 156 164 172 182 209 235 259 275 283 286 285 285 282 282 287 292 295 293 287 282 277 273 269 266 264 265
122 105 88 70 57 47 33 24 20 15 11 5 357 354 350 345 341 338 335 330 325 317 311 310 309 305 302 299 294 289 283 279 274 271 266 257 248 237 230 231 229 230 232 229 225 220 213 209 202 187 180 187 188 185 186 185 184 183 174 160 166 179 195 225 244 265 279 284 287 288 285 281 278 278 280 284 285 283 282 280 278 275 270 264 259
115 100 85 62 37 33 25 10 2 360 357 350 343 339 337 334 330 325 322 318 310 301 298 299 299 299 299 297 295 292 287 280 273 268 261 253 246 237 230 230 230 229 226 222 219 216 210 204 192 176 175 184 183 180 183 183 183 186 182 171 173 190 224 254 263 274 283 285 287 287 284 280 278 276 277 277 276 278 281 282 281 277 271 267 263
112 82 60 46 24 14 3 351 343 341 337 330 327 327 325 322 319 315 311 306 298 292 287 283 285 289 291 292 292 290 287 282 275 269 261 251 245 237 231 230 230 226 219 214 213 209 201 191 177 168 170 172 170 171 176 176 174 176 176 171 177 208 256 262 268 278 282 283 283 283 282 281 279 277 276 275 277 281 283 282 281 276 270 269 268
73 41 18 12 4 348 338 331 326 324 320 318 320 323 320 317 315 312 306 302 299 295 291 285 282 282 284 287 286 284 283 281 278 273 265 257 247 237 230 227 227 224 216 210 207 199 187 174 169 169 166 161 161 163 165 164 163 165 166 165 180 233 263 261 271 278 278 279 280 279 280 281 280 278 275 273 277 283 286 285 282 277 274 273 269
4 358 349 345 339 330 325 320 316 315 315 316 318 318 314 312 310 307 303 301 300 296 294 291 287 283 283 283 282 281 280 278 276 273 268 262 252 241 233 226 225 223 215 206 199 188 175 169 169 168 161 154 152 155 158 157 155 146 106 150 205 257 267 266 277 279 276 279 279 277 281 282 280 279 278 277 279 283 286 287 284 281 279 276 272
348 341 334 330 324 321 317 312 311 311 311 313 314 312 309 305 301 299 297 296 294 291 290 290 287 285 283 281 280 279 277 275 274 271 267 262 254 245 235 225 223 219 204 189 183 175 169 167 164 161 156 149 146 150 154 149 140 111 83 193 258 279 280 279 285 284 282 283 279 277 282 284 282 281 280 281 282 283 286 286 285 283 281 278 275
335 329 325 323 319 316 313 309 307 306 307 309 309 307 303 296 292 290 290 290 288 288 288 288 287 286 283 281 280 278 276 275 273 270 267 262 256 249 235 222 219 209 184 170 170 166 160 158 155 153 151 146 144 148 148 134 118 86 59 308 289 295 291 290 293 290 288 288 285 285 284 280 278 278 277 277 279 282 285 285 284 283 280 278 276
321 320 321 319 313 306 303 302 302 303 306 308 307 303 296 289 286 285 285 284 283 284 287 289 288 288 286 283 280 276 275 273 271 269 267 263 255 239 214 200 199 189 170 161 159 153 146 144 144 143 143 142 142 143 139 126 109 61 25 334 306 302 298 298 301 299 297 294 291 290 286 278 277 278 277 277 278 280 281 282 283 282 279 277 276
319 321 319 314 306 297 295 296 299 302 305 305 303 298 289 284 283 283 282 281 282 284 287 287 287 287 286 283 279 275 273 269 268 269 266 254 226 192 182 185 186 176 162 153 148 141 134 133 135 135 136 138 140 140 134 123 106 36 4 339 315 307 306 307 306 304 301 297 293 291 286 282 285 287 286 285 284 282 280 280 281 278 275 275 278
316 318 316 309 302 296 292 291 294 297 299 299 297 291 287 286 285 284 283 284 286 287 287 287 287 286 284 280 277 274 271 268 267 265 252 215 194 195 192 184 172 157 146 140 136 133 130 131 133 134 134 136 141 145 139 119 90 12 335 320 309 306 308 308 306 302 299 296 295 293 289 288 290 290 288 286 283 281 279 278 277 274 272 273 277
310 309 308 304 301 297 292 288 289 290 291 292 289 286 287 287 285 284 285 287 289 289 289 289 289 287 284 280 276 272 270 269 265 251 213 174 185 194 178 163 153 143 136 133 131 129 130 130 131 130 128 129 140 151 152 142 115 304 298 299 299 301 304 305 303 298 295 294 293 293 295 294 292 288 285 282 281 282 282 280 276 274 273 273 274
306 304 303 302 299 295 291 287 285 285 286 286 284 283 285 286 284 286 288 290 291 291 290 290 289 287 284 279 275 272 268 262 246 216 183 165 170 168 156 147 141 136 132 131 131 131 132 132 132 130 127 131 146 156 160 175 282 292 296 301 303 304 306 306 300 294 293 295 295 296 296 293 289 287 287 287 288 289 286 282 277 275 275 275 274
299 298 298 297 293 289 286 282 280 280 282 282 280 280 284 286 287 290 291 291 290 291 290 289 287 285 282 277 273 269 259 243 213 187 173 159 153 150 144 138 136 135 135 135 137 138 139 138 139 138 138 142 148 156 194 305 315 312 311 312 312 313 315 312 301 293 294 295 296 296 295 292 292 293 295 296 296 294 290 285 283 281 279 277 274
291 289 288 286 284 282 279 277 276 278 280 280 277 278 281 284 287 290 289 289 290 290 288 287 285 283 279 274 267 255 237 215 193 178 166 153 146 142 138 136 138 139 137 135 135 135 133 132 132 132 133 134 133 136 138 334 333 333 331 324 320 320 320 314 302 297 298 299 299 300 300 300 300 301 301 300 298 295 293 291 289 287 283 277 271
284 283 281 280 279 278 275 274 275 277 279 280 277 276 278 282 285 285 285 287 289 288 286 286 283 279 272 259 237 212 196 185 176 166 156 148 142 138 137 137 136 132 128 126 125 124 124 124 124 124 126 126 124 117 93 22 348 342 335 324 319 319 316 311 307 307 310 311 310 308 306 304 302 301 300 298 295 293 292 290 288 284 279 272 267
281 281 280 278 278 278 276 276 276 278 280 281 279 278 280 282 282 282 285 287 288 287 285 282 274 262 243 211 183 164 153 150 149 147 143 139 135 130 128 126 125 124 121 119 120 121 122 122 123 125 126 122 112 89 57 26 1 346 333 323 319 317 313 311 311 312 314 313 310 306 303 301 301 300 299 297 294 292 291 290 288 285 279 274 270
280 280 279 279 279 278 278 277 278 281 282 282 282 284 285 283 283 285 287 289 288 284 279 265 237 203 176 159 149 140 133 131 133 135 135 132 127 122 120 119 122 124 125 125 126 125 126 126 125 123 118 104 87 68 40 13 354 338 327 322 319 315 313 313 312 310 310 308 305 303 303 303 305 304 303 302 299 295 294 292 291 289 286 282 279
283 280 279 279 278 278 279 279 279 283 284 284 287 289 286 285 287 287 288 287 282 266 230 184 156 144 140 138 135 131 127 125 127 128 126 125 125 124 120 118 121 124 126 127 124 121 119 117 110 104 98 90 76 53 24 5 351 338 327 320 314 312 312 311 310 310 308 305 304 305 307 308 309 307 307 306 305 302 300 297 294 292 290 286 283
283 281 279 278 277 277 277 277 278 282 283 285 289 288 284 285 286 285 286 278 232 168 147 138 135 135 135 131 127 124 120 121 125 126 122 119 121 124 123 122 123 124 123 121 121 121 121 116 107 101 98 95 84 58 31 20 10 353 339 327 318 316 316 318 324 323 314 305 304 308 310 310 310 310 310 309 309 308 304 301 298 295 293 289 286
285 282 279 277 276 276 274 274 277 278 279 285 289 279 268 271 270 266 230 161 147 134 123 121 125 127 127 126 126 124 119 115 120 125 121 114 111 113 120 125 127 123 119 116 116 118 122 123 121 115 107 91 74 59 45 33 21 4 349 339 333 329 329 335 339 329 310 305 311 312 312 313 312 312 312 312 312 310 306 303 301 298 295 293 289